Regional Weather Roundup
Issued by NWS Midland/Odessa, TX

Home | Current Version | Previous Version | Text Only | Print | Product List | Glossary On
Versions: 1 2 3 4 5 6 7 8 9 10 11 12 13 14 15 16 17 18 19 20 21 22 23 24 25 26 27 28 29 30 31 32 33 34 35 36 37 38 39 40 41 42 43 44 45 46 47 48 49 50
000
ASUS44 KMAF 291010
RWRMAF
MIDLAND AREA WEATHER ROUNDUP
NATIONAL WEATHER SERVICE MIDLAND TX
400 AM CST SAT NOV 29 2014

...IN SOUTHWEST TEXAS AND SOUTHEAST NEW MEXICO...

CITY           SKY/WX    TMP DP  RH WIND       PRES   REMARKS
ALPINE         PTCLDY    52  22  30 W5        30.12S
ANDREWS        FAIR      47  38  71 SW13      29.96F
ARTESIA        NOT AVBL
BIG SPRING     CLEAR     47  39  73 S14       29.99F
CARLSBAD       CLEAR     31  23  72 N3        29.94F
DRYDEN           N/A     42  40  92 N5        30.01F WCI  39
FORT STOCKTON  CLEAR     52  25  35 SW14      29.99F
GUAD PASS      NOT AVBL
HOBBS          PTCLDY    36  21  55 S7        29.97S WCI  30
MARFA          PTCLDY    28  18  64 N6        30.11F WCI  22
MIDLAND AIRPK  CLEAR     49  40  70 SW7       29.97F
MIDLAND INTL   CLEAR     47  39  74 SW8       29.97F
ODESSA         CLEAR     49  39  68 SW15      29.98F
PECOS          CLEAR     32  22  65 CALM      29.97F
PRESIDIO       FAIR      44  26  49 N7        30.06S WCI  40
SEMINOLE       CLEAR     37  27  68 CALM      29.97S
SNYDER         CLEAR     46  40  80 S12       29.95F
WINK           PTCLDY    36  27  69 CALM      29.96F
$$
...OTHER STATIONS IN TEXAS...

CITY           SKY/WX    TMP DP  RH WIND       PRES   REMARKS
ABILENE        CLEAR     55  43  63 S17G25    29.94F
AMARILLO       CLEAR     51  20  29 W12       29.82F
AUSTIN         CLEAR     55  53  93 S9        30.06S
BROWNSVILLE    CLEAR     61  59  93 SE7       30.09F
CORPUS CHRISTI CLEAR     55  54  96 S6        30.09S
DALLAS FTW     PTCLDY    51  46  83 S13       29.93F
DEL RIO        CLEAR     49  45  86 E7        30.03F
EL PASO        PTCLDY    42  19  39 CALM      30.04F
HOUSTON INT    PTCLDY    62  59  90 S5        30.09S
LUBBOCK        CLEAR     39  22  50 W12       29.92S WCI  32
SAN ANGELO     CLEAR     55  45  68 S18G26    29.98F
SAN ANTONIO    CLEAR     56  53  90 SW7       30.07F
WACO           CLEAR     55  50  83 S16       30.00F
WICHITA FALLS  NOT AVBL
$$
...OTHER LOCATIONS IN NEW MEXICO...

CITY           SKY/WX    TMP DP  RH WIND       PRES   REMARKS
ALAMAGORDO     CLEAR     37  10  32 CALM      30.04F
ALBUQUERQUE    PTCLDY    39  18  42 E5        30.06F WCI  36
CANNON AFB     CLEAR     48  20  32 W3        29.92F
CLOVIS         CLEAR     43  21  42 W13       29.91F WCI  36
HOLLOMAN AFB   CLEAR     34  15  44 CALM      30.04F
ROSWELL        MOCLDY    33  25  72 W7        29.95F WCI  27
RUIDOSO        CLEAR     45   7  21 W3        30.11S
SANTA FE       PTCLDY    38  16  40 W5        30.06F WCI  34
TRUTH OR CONSE CLEAR     35  18  49 W6        30.05F WCI  30
TUCUMCARI      CLEAR     55  19  24 W17       29.86F
$$


USA.gov is the U.S. government's official web portal to all federal, state and local government web resources and services.